#datint,netname,site,siteID,timestamp,IntT,BattV,AirT2,AirT,AirT_Avg,AirT_Max,AirT_Min,RH_Avg,RH_Max,RH_Min,EA_Avg,Td_Avg,Td_Max,Td_Min,WindS_Smp,WindS_Avg,WindD_Avg,WindD_SD,WindS_Max,ETo,ETr,SoilT4,SoilT8,SoilVWC8,SolarW_Avg,wetstate_Avg,wetT_Avg,Precip_accum,Precip_WPG,Precip_TB
15min,AgWx,beryljct,423,12JAN2019:23:30:00,28.8,12.63,26.5,25.9,26.1,26.2,25.9,86,87,86,0.412,22.5,22.8,22.3,8.77,9.1,59,7.6,12.8,0.00004,0.00005,.,33.3,22,0,0,35.6,9.46,0.00,0.00
15min,AgWx,bigpiney,439,12JAN2019:00:00:00,4.4,12.64,0.7,-0.4,-0.7,-0.1,-1.4,84,85,82,0.126,-4.4,-3.7,-5.4,3.069,2.1,265,10,3.1,-0.00004,-0.00005,28.1,29.8,8,0,0,0.0,0.00,0.00,0.00
15min,AgWx,bigpiney,439,12JAN2019:00:15:00,4.0,12.63,-1.0,-0.8,-0.0,0.3,-0.8,85,85,83,0.122,-3.5,-3.1,-4.7,2.74,2.9,299,8.1,3.3,-0.00003,-0.00004,28.0,29.9,8,0,0,0.0,0.00,0.00,0.00
15min,AgWx,bigpiney,439,12JAN2019:00:30:00,3.6,12.62,0.1,-0.6,-1.1,-0.5,-1.5,84,86,83,0.126,-4.7,-3.8,-5.3,3.442,3.6,307,4.0,4.1,-0.00003,-0.00003,28.0,29.8,8,0,0,0.0,0.00,0.00,0.00
15min,AgWx,bigpiney,439,12JAN2019:00:45:00,3.3,12.62,-0.0,-0.4,-0.4,-0.2,-0.7,86,86,85,0.127,-3.7,-3.4,-4.0,1.535,2.3,312,9.4,3.3,-0.00004,-0.00005,27.9,29.8,8,0,0,0.0,0.00,0.00,0.00
15min,AgWx,bigpiney,439,12JAN2019:01:00:00,3.1,12.61,0.6,-0.5,-0.8,-0.4,-0.9,85,86,85,0.127,-4.1,-3.7,-4.4,1.074,1.0,273,29,1.7,-0.00006,-0.00009,27.9,29.8,8,0,0,0.0,0.00,0.00,0.00
15min,AgWx,bigpiney,439,12JAN2019:01:15:00,2.7,12.59,1.1,0.6,0.4,0.8,-0.5,86,87,86,0.135,-2.7,-2.3,-3.8,1.71,0.8,307,34,1.7,-0.00008,-0.00010,27.8,29.8,8,0,0,0.0,0.00,0.00,0.00
15min,AgWx,bigpiney,439,12JAN2019:01:30:00,2.3,12.6,0.1,-0.7,-0.5,0.6,-1.5,85,87,83,0.125,-3.9,-2.6,-5.5,2.916,1.7,308,24,3.2,-0.00005,-0.00006,27.8,29.7,8,0,0,0.0,0.00,0.00,0.00
15min,AgWx,bigpiney,439,12JAN2019:01:45:00,2.0,12.57,-0.2,-1.2,-0.9,-0.5,-1.2,85,86,85,0.122,-4.3,-3.7,-4.6,0,1.5,339,4.4,3.2,-0.00005,-0.00007,27.7,29.7,8,0,0,0.0,0.00,0.00,0.00
15min,AgWx,bigpiney,439,12JAN2019:02:00:00,1.7,12.56,0.5,-0.3,-0.8,-0.3,-1.2,86,86,85,0.129,-4.2,-3.5,-4.5,0,0.2,214,19,0.9,-0.00009,-0.00014,27.7,29.7,8,0,0,0.0,0.00,0.00,0.00
15min,AgWx,bigpiney,439,12JAN2019:02:15:00,1.4,12.55,-2.5,-1.0,-0.5,0.1,-1.2,85,86,83,0.122,-3.8,-3.2,-5.0,2.105,0.8,211,14,2.1,-0.00007,-0.00010,27.7,29.8,8,0,0,0.0,0.00,0.00,0.00
15min,AgWx,bigpiney,439,12JAN2019:02:30:00,1.0,12.55,-1.8,-2.1,-3.1,-1.2,-4.7,83,87,80,0.117,-7.0,-4.3,-9.3,1.513,2.0,228,6.0,2.9,-0.00004,-0.00005,27.6,29.7,8,0,0,0.0,0.00,0.00,0.00
15min,AgWx,bigpiney,439,12JAN2019:02:45:00,0.4,12.53,1.6,0.1,-1.3,0.1,-2.9,85,87,83,0.131,-4.7,-3.0,-6.9,0.767,1.3,270,28,2.9,-0.00006,-0.00008,27.5,29.7,8,0,0,0.0,0.00,0.00,0.00
15min,AgWx,bigpiney,439,12JAN2019:03:00:00,0.0,12.53,-2.6,-2.5,-1.6,0.3,-2.7,83,86,81,0.111,-5.4,-2.9,-7.0,0,0.3,272,16,1.4,-0.00008,-0.00012,27.5,29.6,8,0,0,0.0,0.00,0.00,0.00
15min,AgWx,bigpiney,439,12JAN2019:03:15:00,-0.3,12.52,-2.4,-4.0,-4.0,-2.6,-4.8,82,83,80,0.104,-8.2,-6.7,-9.1,0.044,0.8,207,11,2.0,-0.00006,-0.00008,27.4,29.7,8,0,0,0.0,0.00,0.00,0.00
15min,AgWx,bigpiney,439,12JAN2019:03:30:00,-0.7,12.51,-5.4,-5.5,-3.5,-2.4,-5.5,83,84,80,0.093,-7.4,-5.9,-10.1,0.855,0.8,274,57,2.3,-0.00006,-0.00009,27.4,29.6,8,0,0,0.0,0.00,0.00,0.00
15min,AgWx,bigpiney,439,12JAN2019:03:45:00,-1.1,12.48,-1.8,-2.6,-3.7,-2.4,-5.9,84,87,80,0.114,-7.3,-5.5,-10.4,0,0.3,332,11,1.4,-0.00008,-0.00011,27.3,29.6,8,0,0,0.0,0.00,0.00,0.00
15min,AgWx,bigpiney,439,12JAN2019:04:00:00,-1.4,12.47,-0.8,-1.9,-2.3,-1.9,-2.6,85,85,85,0.118,-5.6,-5.2,-5.9,0,0.1,278,11,0.5,-0.00009,-0.00014,27.3,29.6,8,0,0,0.0,0.00,0.00,0.00
15min,AgWx,bigpiney,439,12JAN2019:04:15:00,-1.5,12.48,-5.5,-5.4,-2.9,-1.5,-5.4,83,85,80,0.093,-6.8,-4.8,-10.1,1.973,1.1,238,21,2.3,-0.00006,-0.00008,27.2,29.5,8,0,0,0.0,0.00,0.00,0.00
15min,AgWx,bigpiney,439,12JAN2019:04:30:00,-1.7,12.47,-5.5,-5.9,-6.1,-5.5,-6.5,81,82,79,0.094,-10.6,-9.9,-11.1,2.017,2.3,226,4.9,2.8,-0.00003,-0.00004,27.2,29.5,8,0,0,0.0,0.00,0.00,0.00
15min,AgWx,bigpiney,439,12JAN2019:04:45:00,-2.0,12.45,-4.4,-4.7,-5.3,-4.6,-5.9,82,83,82,0.099,-9.3,-8.7,-10.1,2.631,2.6,228,6.8,3.2,-0.00003,-0.00003,27.1,29.5,8,0,0,0.0,0.00,0.00,0.00
15min,AgWx,bigpiney,439,12JAN2019:05:00:00,-2.2,12.45,-4.2,-4.8,-4.9,-4.8,-5.1,82,82,81,0.099,-9.1,-8.9,-9.3,1.776,2.5,232,2.6,3.1,-0.00003,-0.00003,27.0,29.5,8,0,0,0.0,0.00,0.00,0.00
15min,AgWx,bigpiney,439,12JAN2019:05:15:00,-2.2,12.43,-6.2,-6.5,-5.8,-4.7,-6.6,81,82,80,0.090,-10.1,-8.8,-11.1,0,1.3,296,33,2.1,-0.00004,-0.00006,27.0,29.5,8,0,0,0.0,0.00,0.00,0.00
15min,AgWx,bigpiney,439,12JAN2019:05:30:00,-2.5,12.43,-6.1,-6.6,-6.2,-5.8,-6.6,82,83,81,0.089,-10.4,-9.7,-11.1,0.965,0.5,269,26,1.8,-0.00006,-0.00009,27.0,29.4,8,0,0,0.0,0.00,0.00,0.00
15min,AgWx,bigpiney,439,12JAN2019:05:45:00,-2.8,12.42,-5.8,-6.6,-6.3,-5.4,-6.9,81,83,81,0.089,-10.5,-9.3,-11.3,0.855,1.1,243,8.0,2.1,-0.00005,-0.00006,26.9,29.4,8,0,0,0.0,0.00,0.00,0.00
15min,AgWx,bigpiney,439,12JAN2019:06:00:00,-3.1,12.39,-1.2,-2.1,-3.8,-2.1,-6.6,85,86,81,0.117,-7.3,-5.5,-10.9,0.921,0.8,281,4.7,1.4,-0.00006,-0.00009,26.9,29.4,8,0,0,0.0,0.00,0.00,0.00
15min,AgWx,bigpiney,439,12JAN2019:06:15:00,-3.1,12.37,-1.5,-2.1,-1.7,-1.2,-2.1,84,85,83,0.114,-5.2,-4.8,-5.9,0.833,0.1,275,10,0.9,-0.00009,-0.00014,26.8,29.3,8,0,0,0.0,0.00,0.00,0.00
15min,AgWx,bigpiney,439,12JAN2019:06:30:00,-3.1,12.4,-2.9,-3.5,-2.7,-1.9,-4.1,83,84,80,0.105,-6.6,-5.6,-8.7,0.745,1.2,238,8.5,1.8,-0.00006,-0.00007,26.8,29.3,8,0,0,0.0,0.00,0.00,0.00
15min,AgWx,bigpiney,439,12JAN2019:06:45:00,-3.3,12.39,-6.2,-5.7,-3.9,-2.9,-5.7,82,84,79,0.091,-8.1,-6.6,-10.5,1.206,1.0,239,8.0,1.4,-0.00006,-0.00008,26.7,29.3,8,0,0,0.0,0.00,0.00,0.00
15min,AgWx,bigpiney,439,12JAN2019:07:00:00,-3.7,12.38,-2.8,-2.1,-2.9,-1.8,-5.9,84,86,79,0.115,-6.6,-5.0,-10.7,1.513,1.1,213,13,1.5,-0.00006,-0.00008,26.7,29.3,8,0,0,0.0,0.00,0.00,0.00
15min,AgWx,bigpiney,439,12JAN2019:07:15:00,-4.0,12.37,-4.0,-4.5,-4.4,-2.2,-5.4,81,84,79,0.100,-8.8,-6.0,-10.1,1.513,1.8,206,12,2.4,-0.00004,-0.00005,26.6,29.3,8,0,0,0.0,0.00,0.00,0.00
15min,AgWx,bigpiney,439,12JAN2019:07:30:00,-4.1,12.37,-5.2,-6.3,-5.9,-4.5,-6.8,80,82,79,0.091,-10.4,-8.7,-11.4,1.337,0.8,206,6.9,1.5,-0.00006,-0.00008,26.6,29.3,8,0,0,0.0,0.00,0.00,0.00
15min,AgWx,bigpiney,439,12JAN2019:07:45:00,-4.3,12.39,-6.0,-6.2,-5.9,-5.6,-6.3,81,82,81,0.091,-10.2,-9.7,-10.6,0,0.6,215,2.6,1.5,-0.00006,-0.00008,26.5,29.3,8,2,0,0.0,0.00,0.00,0.00
15min,AgWx,bigpiney,439,12JAN2019:08:00:00,-4.4,14.99,-6.8,-7.0,-6.4,-5.8,-7.0,81,82,80,0.087,-10.7,-9.9,-11.6,0,0.0,16,12,0.5,-0.00006,-0.00010,26.5,29.2,8,18,0,0.0,0.00,0.00,0.00
15min,AgWx,bigpiney,439,12JAN2019:08:15:00,-4.3,14.98,-5.0,-5.8,-6.7,-5.8,-7.3,81,82,80,0.094,-11.0,-9.8,-11.8,0,0.0,323,0.6,0.5,-0.00006,-0.00007,26.4,29.2,8,49,0,0.0,0.00,0.00,0.00
15min,AgWx,bigpiney,439,12JAN2019:08:30:00,-3.6,14.99,-3.2,-4.1,-5.0,-4.1,-5.8,83,83,82,0.103,-9.0,-8.0,-9.8,0,0.3,336,16,1.0,-0.00002,-0.00001,26.4,29.2,8,77,0,0.0,0.00,0.00,0.00
15min,AgWx,bigpiney,439,12JAN2019:08:45:00,-2.0,14.98,-1.9,-2.2,-3.0,-2.2,-4.1,83,83,83,0.113,-7.0,-6.2,-8.0,0.395,0.1,171,11,0.7,0.00004,0.00005,26.4,29.3,8,115,0,0.0,0.00,0.00,0.00
15min,AgWx,bigpiney,439,12JAN2019:09:00:00,-0.0,14.98,-2.5,-2.4,-2.4,-2.1,-2.6,82,83,82,0.111,-6.5,-6.2,-6.9,1.03,0.7,118,17,1.5,0.00011,0.00012,26.3,29.2,8,151,0,0.0,0.00,0.00,0.00
15min,AgWx,bigpiney,439,12JAN2019:09:15:00,2.0,15.03,-0.5,-2.1,-2.2,-1.9,-2.6,82,83,81,0.113,-6.4,-5.9,-6.9,0.811,1.4,105,11,2.4,0.00017,0.00019,26.3,29.2,8,187,0,0.0,0.00,0.00,0.00
15min,AgWx,bigpiney,439,12JAN2019:09:30:00,3.8,14.83,0.8,0.2,-0.7,0.4,-1.9,83,84,82,0.127,-4.6,-3.5,-6.1,1.03,0.9,91,23,1.9,0.00025,0.00027,26.3,29.2,8,222,0,0.0,0.00,0.00,0.00
15min,AgWx,bigpiney,439,12JAN2019:09:45:00,5.8,14.82,0.6,0.2,0.7,1.4,0.2,83,84,81,0.126,-3.3,-2.5,-4.1,1.556,1.3,50,32,2.8,0.00032,0.00035,26.2,29.1,8,257,0,0.0,0.00,0.00,0.00
15min,AgWx,bigpiney,439,12JAN2019:10:00:00,7.7,14.75,1.8,0.9,0.3,0.9,-0.1,83,84,82,0.133,-3.7,-2.8,-4.4,0.833,1.6,40,13,2.4,0.00037,0.00041,26.2,29.0,8,290,0,0.0,0.00,0.00,0.00
15min,AgWx,bigpiney,439,12JAN2019:10:15:00,9.6,14.74,1.7,1.6,1.1,1.7,0.7,83,84,82,0.137,-2.9,-2.2,-3.4,2.74,1.8,37,13,2.7,0.00043,0.00047,26.2,29.1,8,320,0,0.0,0.00,0.00,0.00
15min,AgWx,bigpiney,439,12JAN2019:10:30:00,11.3,14.7,5.7,4.5,3.0,4.5,1.6,84,85,83,0.158,-0.7,0.9,-2.2,1.008,1.4,23,22,2.5,0.00052,0.00056,26.2,29.1,8,347,0,0.0,0.00,0.00,0.00
15min,AgWx,bigpiney,439,12JAN2019:10:45:00,13.1,14.85,4.9,5.3,5.4,6.0,4.6,85,86,83,0.163,1.7,2.8,0.9,4.165,2.8,12,37,4.2,0.00057,0.00063,26.3,29.1,8,372,0,0.0,0.00,0.00,0.00
15min,AgWx,bigpiney,439,12JAN2019:11:00:00,14.7,14.64,7.1,6.0,5.4,6.0,5.1,84,85,83,0.170,1.7,2.4,1.2,3.814,3.3,359,14,4.5,0.00061,0.00067,26.3,29.0,8,395,0,0.0,0.00,0.00,0.00
15min,AgWx,bigpiney,439,12JAN2019:11:15:00,15.8,14.64,5.7,5.3,5.5,6.0,4.9,84,85,83,0.164,1.7,2.5,0.9,2.938,3.8,342,17,5.3,0.00063,0.00070,26.3,29.0,8,415,0,0.0,0.00,0.00,0.00
15min,AgWx,bigpiney,439,12JAN2019:11:30:00,16.6,14.79,9.0,7.1,6.4,7.5,5.3,85,86,84,0.179,2.8,4.0,1.6,3.486,3.4,334,16,5.7,0.00069,0.00076,26.3,29.0,8,432,0,0.0,0.00,0.00,0.00
15min,AgWx,bigpiney,439,12JAN2019:11:45:00,17.5,14.64,7.7,8.2,7.6,8.2,6.9,85,86,84,0.189,4.1,4.8,3.1,5.722,4.1,336,13,6.2,0.00072,0.00080,26.4,29.0,8,445,0,0.0,0.00,0.00,0.00
15min,AgWx,bigpiney,439,12JAN2019:12:00:00,18.2,14.63,9.8,10.0,9.0,10.0,8.0,86,87,85,0.209,5.6,6.9,4.5,4.384,5.0,326,11,6.6,0.00075,0.00082,26.4,29.0,8,456,0,0.0,0.00,0.00,0.00
15min,AgWx,bigpiney,439,12JAN2019:12:15:00,19.0,14.63,11.4,11.2,10.3,11.2,9.6,86,87,86,0.219,7.0,7.9,6.3,1.556,3.9,335,16,6.3,0.00082,0.00090,26.4,29.0,8,462,0,0.0,0.00,0.00,0.00
15min,AgWx,bigpiney,439,12JAN2019:12:30:00,20.0,14.68,12.4,12.1,11.6,12.2,10.8,86,87,85,0.224,8.1,8.8,7.2,2.477,3.4,334,15,5.5,0.00088,0.00097,26.5,29.0,8,464,0,0.0,0.00,0.00,0.00
15min,AgWx,bigpiney,439,12JAN2019:12:45:00,21.1,14.56,14.2,14.3,13.0,14.3,12.0,83,86,79,0.230,8.8,9.4,8.1,2.521,2.7,333,21,5.3,0.00096,0.00104,26.5,29.0,8,464,0,0.0,0.00,0.00,0.00
15min,AgWx,bigpiney,439,12JAN2019:13:00:00,22.5,14.54,15.0,15.8,14.9,16.1,13.9,76,79,73,0.225,8.6,9.6,8.0,3.003,2.2,20,30,4.8,0.00103,0.00114,26.6,28.9,8,460,0,0.0,0.00,0.00,0.00
15min,AgWx,bigpiney,439,12JAN2019:13:15:00,23.8,14.51,16.1,16.1,15.9,16.5,15.2,72,73,71,0.224,8.5,9.1,7.7,2.565,3.2,21,19,4.7,0.00102,0.00114,26.6,29.0,8,452,0,0.0,0.00,0.00,0.00
15min,AgWx,bigpiney,439,12JAN2019:13:30:00,24.9,14.48,16.9,17.7,17.0,17.7,16.0,71,72,69,0.238,9.1,9.9,8.4,2.718,2.9,43,16,4.8,0.00103,0.00116,26.6,29.0,8,441,0,0.0,0.00,0.00,0.00
15min,AgWx,bigpiney,439,12JAN2019:13:45:00,25.8,14.44,16.5,17.1,17.3,17.9,16.7,70,71,69,0.229,9.2,10.0,8.4,4.976,4.2,44,11,6.2,0.00097,0.00112,26.7,29.0,8,427,0,0.0,0.00,0.00,0.00
15min,AgWx,bigpiney,439,12JAN2019:14:00:00,26.5,14.41,18.0,18.2,17.8,18.6,16.9,68,70,66,0.234,9.1,9.8,8.4,5.174,3.8,66,20,5.5,0.00096,0.00110,26.7,29.0,8,410,0,0.0,0.00,0.00,0.00
15min,AgWx,bigpiney,439,12JAN2019:14:15:00,26.8,14.41,18.6,17.6,17.9,18.4,17.4,68,69,66,0.229,9.0,9.6,8.4,4.867,4.8,64,14,6.5,0.00089,0.00105,26.8,29.0,8,389,0,0.0,0.00,0.00,0.00
15min,AgWx,bigpiney,439,12JAN2019:14:30:00,27.0,14.41,18.4,19.1,18.2,19.2,17.5,67,68,67,0.238,9.2,10.1,8.7,4.669,4.6,73,15,6.9,0.00084,0.00099,26.8,29.0,8,364,0,0.0,0.00,0.00,0.00
15min,AgWx,bigpiney,439,12JAN2019:14:45:00,27.1,14.42,18.8,18.3,18.5,19.0,18.1,66,67,66,0.231,9.2,9.9,8.6,3.091,4.3,74,13,6.1,0.00078,0.00093,26.9,29.0,8,336,0,0.0,0.00,0.00,0.00
15min,AgWx,bigpiney,439,12JAN2019:15:00:00,27.2,14.44,18.2,18.3,18.6,19.2,18.0,67,68,66,0.229,9.3,10.2,8.7,3.464,4.4,75,15,6.3,0.00070,0.00084,26.9,28.9,8,306,0,0.0,0.00,0.00,0.00
15min,AgWx,bigpiney,439,12JAN2019:15:15:00,27.3,14.39,18.7,18.7,18.7,19.0,18.2,67,68,66,0.234,9.5,10.1,8.9,3.573,3.7,77,16,6.2,0.00061,0.00074,27.0,29.0,8,275,0,0.0,0.00,0.00,0.00
15min,AgWx,bigpiney,439,12JAN2019:15:30:00,27.2,14.39,18.8,19.1,18.7,19.1,18.3,67,68,67,0.242,9.7,10.3,9.3,1.732,3.1,99,25,5.0,0.00052,0.00063,27.0,29.0,8,242,0,0.0,0.00,0.00,0.00
15min,AgWx,bigpiney,439,12JAN2019:15:45:00,27.1,14.38,19.2,18.5,18.4,19.3,17.9,68,69,67,0.240,9.6,10.4,9.1,1.666,2.2,69,32,4.1,0.00040,0.00048,27.1,29.0,8,207,0,0.0,0.00,0.00,0.00
15min,AgWx,bigpiney,439,12JAN2019:16:00:00,27.1,14.39,18.1,17.9,18.0,18.7,17.7,69,70,67,0.235,9.5,10.0,9.2,3.135,2.8,35,18,3.9,0.00030,0.00038,27.1,29.1,8,172,0,0.0,0.00,0.00,0.00
15min,AgWx,bigpiney,439,12JAN2019:16:15:00,26.7,14.46,17.7,17.5,17.6,17.9,17.4,70,70,69,0.233,9.4,9.7,9.2,2.324,2.0,25,8.6,3.6,0.00018,0.00024,27.2,29.1,8,136,0,0.0,0.00,0.00,0.00
15min,AgWx,bigpiney,439,12JAN2019:16:30:00,26.2,14.47,17.7,17.5,17.4,17.7,17.3,70,70,69,0.231,9.3,9.5,9.1,0,1.0,17,11,2.2,0.00005,0.00007,27.2,29.2,8,102,0,0.0,0.00,0.00,0.00
15min,AgWx,bigpiney,439,12JAN2019:16:45:00,25.4,14.54,17.5,17.3,17.4,17.5,17.2,70,70,69,0.232,9.2,9.3,9.1,0,0.1,39,0.0,0.8,-0.00009,-0.00010,27.2,29.1,8,69,0,0.0,0.00,0.00,0.00
15min,AgWx,bigpiney,439,12JAN2019:17:00:00,24.3,13.21,16.1,16.0,16.6,17.3,16.0,71,72,70,0.225,8.8,9.3,8.5,0.526,0.6,318,5.6,1.2,-0.00019,-0.00019,27.3,29.1,8,32,0,0.0,0.00,0.00,0.00
15min,AgWx,bigpiney,439,12JAN2019:17:15:00,22.3,13.02,14.0,13.9,14.8,16.0,13.9,74,75,72,0.214,7.9,8.6,7.4,1.666,0.5,290,9.8,1.7,-0.00012,-0.00018,27.3,29.1,8,7,0,0.0,0.00,0.00,0.00
15min,AgWx,bigpiney,439,12JAN2019:17:30:00,19.5,12.94,12.6,12.0,12.6,13.9,11.9,77,79,75,0.207,6.6,7.4,6.3,3.727,3.0,276,3.8,3.9,-0.00004,-0.00005,27.3,29.1,8,2,0,0.0,0.00,0.00,0.00
15min,AgWx,bigpiney,439,12JAN2019:17:45:00,16.5,12.9,10.6,10.4,11.6,12.6,10.4,79,80,78,0.194,6.3,7.3,5.1,3.398,3.9,278,2.1,4.3,-0.00003,-0.00003,27.3,29.2,8,0,0,0.0,0.00,0.00,0.00
15min,AgWx,bigpiney,439,12JAN2019:18:00:00,13.9,12.87,2.5,2.7,6.6,10.5,2.7,80,82,78,0.142,1.7,5.5,-1.5,3.354,3.3,251,15,3.8,-0.00003,-0.00004,27.3,29.2,8,0,0,0.0,0.00,0.00,0.00
15min,AgWx,bigpiney,439,12JAN2019:18:15:00,11.6,12.86,2.8,2.2,1.9,2.6,1.7,83,84,82,0.141,-1.9,-1.5,-2.3,4.889,4.7,220,3.3,5.5,-0.00002,-0.00002,27.3,29.2,8,0,0,0.0,0.00,0.00,0.00
15min,AgWx,bigpiney,439,12JAN2019:18:30:00,9.8,12.84,3.9,3.5,2.7,3.6,2.2,84,85,84,0.150,-1.0,0.0,-1.7,4.077,5.1,233,6.8,6.6,-0.00002,-0.00002,27.4,29.3,8,0,0,0.0,0.00,0.00,0.00
15min,AgWx,bigpiney,439,12JAN2019:18:45:00,8.6,12.82,1.6,1.1,2.2,3.5,1.1,84,84,83,0.134,-1.7,-0.2,-2.8,4.341,4.5,228,4.6,5.3,-0.00002,-0.00002,27.4,29.2,8,0,0,0.0,0.00,0.00,0.00
15min,AgWx,bigpiney,439,12JAN2019:19:00:00,7.5,12.8,2.6,1.9,1.3,1.9,0.9,85,85,84,0.141,-2.2,-1.5,-2.9,4.779,4.3,225,4.0,5.4,-0.00002,-0.00002,27.3,29.3,8,0,0,0.0,0.00,0.00,0.00
15min,AgWx,bigpiney,439,12JAN2019:19:15:00,6.8,12.79,3.3,2.3,2.6,3.2,1.9,85,86,84,0.143,-0.9,-0.3,-1.6,4.012,3.4,232,8.1,5.2,-0.00003,-0.00004,27.3,29.1,8,0,0,0.0,0.00,0.00,0.00
15min,AgWx,bigpiney,439,12JAN2019:19:30:00,6.3,12.77,4.0,3.2,2.8,3.2,2.4,85,85,84,0.149,-0.7,-0.3,-1.1,6.401,5.0,222,11,6.8,-0.00002,-0.00002,27.3,29.2,8,0,0,0.0,0.00,0.00,0.00
15min,AgWx,bigpiney,439,12JAN2019:19:45:00,6.1,12.77,4.3,4.2,4.4,5.1,3.2,84,86,83,0.154,0.7,1.6,-0.3,4.231,6.0,232,5.4,7.3,-0.00001,-0.00001,27.3,29.2,8,0,0,0.0,0.00,0.00,0.00
15min,AgWx,bigpiney,439,12JAN2019:20:00:00,6.1,12.76,0.5,0.8,2.6,4.1,0.8,83,84,81,0.128,-1.4,0.2,-3.6,1.337,2.5,260,20,4.3,-0.00004,-0.00005,27.2,29.2,8,0,0,0.0,0.00,0.00,0.00
15min,AgWx,bigpiney,439,12JAN2019:20:15:00,5.7,12.74,2.9,2.2,1.9,2.8,0.6,84,86,82,0.143,-1.7,-0.5,-3.7,2.499,2.9,220,13,4.3,-0.00004,-0.00004,27.2,29.2,8,0,0,0.0,0.00,0.00,0.00
15min,AgWx,bigpiney,439,12JAN2019:20:30:00,5.3,12.72,-0.2,-1.0,1.8,2.6,-1.1,84,85,80,0.118,-2.0,-0.8,-5.6,1.14,2.3,231,66,4.6,-0.00005,-0.00005,27.2,29.3,8,0,0,0.0,0.00,0.00,0.00
15min,AgWx,bigpiney,439,12JAN2019:20:45:00,4.7,12.71,-0.2,-0.9,-0.8,0.2,-1.7,84,86,82,0.123,-4.4,-3.1,-5.9,2.609,1.8,51,36,2.9,-0.00005,-0.00006,27.2,29.3,8,0,0,0.0,0.00,0.00,0.00
15min,AgWx,bigpiney,439,12JAN2019:21:00:00,3.9,12.7,-2.2,-2.4,-1.7,-0.9,-2.4,84,85,83,0.114,-5.3,-4.3,-6.0,2.105,2.1,7.6,16,3.1,-0.00004,-0.00005,27.1,29.3,8,0,0,0.0,0.00,0.00,0.00
15min,AgWx,bigpiney,439,12JAN2019:21:15:00,3.1,12.7,-5.2,-5.5,-3.8,-2.5,-5.5,84,85,83,0.097,-7.5,-6.0,-9.3,4.012,2.3,311,14,4.0,-0.00004,-0.00004,27.1,29.3,8,0,0,0.0,0.00,0.00,0.00
15min,AgWx,bigpiney,439,12JAN2019:21:30:00,2.1,12.68,-5.7,-6.1,-6.0,-5.5,-6.3,84,85,83,0.096,-9.6,-9.3,-9.9,3.223,3.6,307,6.1,4.6,-0.00002,-0.00002,27.1,29.2,8,0,0,0.0,0.00,0.00,0.00
15min,AgWx,bigpiney,439,12JAN2019:21:45:00,1.1,12.68,-5.6,-6.4,-6.6,-6.1,-6.9,86,88,85,0.095,-9.7,-9.0,-10.3,2.105,2.8,323,5.9,3.6,-0.00003,-0.00003,27.0,29.2,8,0,0,0.0,0.00,0.00,0.00
15min,AgWx,bigpiney,439,12JAN2019:22:00:00,0.4,12.65,-4.1,-5.0,-5.8,-5.0,-6.5,85,85,84,0.101,-9.2,-8.4,-9.8,2.148,1.7,296,16,2.6,-0.00004,-0.00005,27.0,29.2,8,0,0,0.0,0.00,0.00,0.00
15min,AgWx,bigpiney,439,12JAN2019:22:15:00,-0.2,12.65,-5.7,-6.2,-5.2,-4.6,-6.2,84,86,82,0.092,-9.0,-7.8,-10.4,1.25,1.0,275,18,2.3,-0.00005,-0.00007,26.9,29.1,8,0,0,0.0,0.00,0.00,0.00
15min,AgWx,bigpiney,439,12JAN2019:22:30:00,-0.8,12.64,-4.9,-5.4,-5.3,-4.8,-6.3,83,84,82,0.096,-9.1,-8.6,-10.5,3.99,1.5,5.8,18,4.2,-0.00004,-0.00006,26.9,29.2,8,0,0,0.0,0.00,0.00,0.00
15min,AgWx,bigpiney,439,12JAN2019:22:45:00,-1.2,12.63,-6.7,-7.3,-6.8,-5.5,-7.3,82,82,81,0.088,-10.9,-9.5,-11.3,2.389,3.1,330,9.1,4.0,-0.00002,-0.00002,26.8,29.2,8,0,0,0.0,0.00,0.00,0.00
15min,AgWx,bigpiney,439,12JAN2019:23:00:00,-1.6,12.6,-7.6,-8.1,-7.6,-7.1,-8.2,82,83,81,0.084,-11.6,-10.9,-12.3,1.359,2.4,327,10,3.3,-0.00003,-0.00003,26.8,29.1,8,0,0,0.0,0.00,0.00,0.00
15min,AgWx,bigpiney,439,12JAN2019:23:15:00,-1.9,12.6,-5.8,-6.7,-7.5,-6.7,-8.2,83,83,82,0.091,-11.4,-10.5,-12.2,0,0.1,316,3.9,1.4,-0.00007,-0.00011,26.7,29.1,8,0,0,0.0,0.00,0.00,0.00
15min,AgWx,bigpiney,439,12JAN2019:23:30:00,-2.1,12.59,-5.7,-6.4,-6.3,-5.9,-6.7,82,83,82,0.092,-10.2,-9.9,-10.6,0.658,0.3,330,23,1.1,-0.00007,-0.00010,26.7,29.2,8,0,0,0.0,0.00,0.00,0.00
15min,AgWx,bigpiney,439,12JAN2019:23:45:00,-2.2,12.58,-6.0,-6.6,-6.6,-6.2,-6.8,82,82,81,0.090,-10.8,-10.4,-11.1,1.074,0.3,265,10,2.0,-0.00007,-0.00010,26.6,29.1,8,0,0,0.0,0.00,0.00,0.00
15min,AgWx,blo,425,12JAN2019:00:00:00,18.1,12.96,20.6,20.4,21.2,21.9,20.4,89,90,87,0.333,18.5,19.3,17.3,4.669,1.7,322,42,4.7,-0.00012,-0.00015,33.0,34.3,21,0,100,21.8,13.34,0.00,0.00
15min,AgWx,blo,425,12JAN2019:00:15:00,18.1,12.94,19.1,19.1,20.0,20.9,19.0,88,89,86,0.317,16.9,18.0,16.3,4.056,3.8,334,13,5.5,-0.00006,-0.00007,33.0,34.3,21,0,100,21.7,13.34,0.00,0.00
15min,AgWx,blo,425,12JAN2019:00:30:00,18.4,12.94,21.1,20.9,20.1,20.9,19.1,90,91,88,0.351,17.5,18.7,16.3,3.661,3.7,313,7.5,5.3,-0.00007,-0.00008,33.0,34.3,21,0,100,23.0,13.34,0.00,0.00
15min,AgWx,blo,425,12JAN2019:00:45:00,18.9,12.94,20.6,20.9,20.6,21.1,20.2,90,91,90,0.346,18.2,18.7,17.7,2.938,3.2,324,12,4.4,-0.00008,-0.00009,33.0,34.3,21,0,100,23.1,13.34,0.00,0.00
15min,AgWx,blo,425,12JAN2019:01:00:00,19.1,12.93,19.3,19.5,19.8,20.8,19.4,89,90,87,0.328,17.2,18.2,16.3,2.543,4.0,330,20,6.0,-0.00006,-0.00007,33.0,34.3,21,0,100,22.4,13.34,0.00,0.00
15min,AgWx,blo,425,12JAN2019:01:15:00,19.3,12.92,20.7,20.4,19.7,20.4,19.2,91,92,90,0.345,17.4,18.3,16.8,2.477,3.6,299,8.4,5.7,-0.00007,-0.00008,33.0,34.3,21,0,100,23.3,13.34,0.00,0.00
15min,AgWx,blo,425,12JAN2019:01:30:00,19.7,12.91,20.4,20.3,20.4,21.1,20.0,90,91,89,0.337,18.0,19.0,17.1,3.464,2.9,306,11,4.8,-0.00009,-0.00010,33.0,34.3,21,0,100,24.7,13.34,0.00,0.00
15min,AgWx,blo,425,12JAN2019:01:45:00,20.2,12.91,20.5,20.1,20.1,20.3,19.9,90,91,90,0.341,17.8,18.1,17.4,2.784,2.8,306,14,4.1,-0.00009,-0.00011,33.0,34.3,21,0,100,25.0,13.34,0.00,0.00
15min,AgWx,blo,425,12JAN2019:02:00:00,20.5,12.9,19.7,19.3,19.0,20.2,18.2,92,93,90,0.336,17.0,18.2,15.9,4.297,2.4,242,17,4.3,-0.00010,-0.00012,33.0,34.3,21,0,100,24.9,13.34,0.00,0.00
15min,AgWx,blo,425,12JAN2019:02:15:00,20.8,12.9,20.3,19.9,19.7,20.0,19.3,94,94,93,0.347,18.1,18.5,17.6,2.126,3.2,230,11,5.3,-0.00009,-0.00010,33.0,34.3,21,0,100,25.2,13.34,0.00,0.00
15min,AgWx,blo,425,12JAN2019:02:30:00,21.1,12.89,20.2,20.0,20.1,20.3,20.0,94,94,94,0.349,18.6,18.8,18.5,0.68,1.4,251,17,2.2,-0.00013,-0.00017,33.0,34.3,21,0,100,26.2,13.34,0.00,0.00
15min,AgWx,blo,425,12JAN2019:02:45:00,21.3,12.89,20.2,20.3,20.1,20.4,19.8,94,94,94,0.355,18.6,19.0,18.2,1.732,2.0,236,7.3,3.2,-0.00011,-0.00014,33.0,34.3,21,0,100,26.2,13.34,0.00,0.00
15min,AgWx,blo,425,12JAN2019:03:00:00,21.6,12.88,22.1,21.5,20.9,21.5,20.2,95,95,94,0.373,19.6,20.1,18.8,1.863,2.5,278,17,4.2,-0.00011,-0.00013,33.0,34.3,21,0,100,26.4,13.34,0.00,0.00
15min,AgWx,blo,425,12JAN2019:03:15:00,21.9,12.88,22.3,21.8,21.4,21.8,21.2,94,95,94,0.380,19.9,20.6,19.7,1.074,1.6,283,12,2.6,-0.00013,-0.00017,33.0,34.3,21,0,100,26.9,13.34,0.00,0.00
15min,AgWx,blo,425,12JAN2019:03:30:00,22.2,12.87,20.5,20.4,21.4,22.1,20.4,95,96,94,0.356,20.2,21.0,19.0,1.162,2.1,224,22,5.4,-0.00012,-0.00015,33.0,34.3,21,0,100,27.3,13.34,0.00,0.00
15min,AgWx,blo,425,12JAN2019:03:45:00,22.3,12.86,20.7,19.8,20.2,20.5,19.7,94,95,94,0.346,18.8,19.2,18.3,2.105,2.4,214,18,3.9,-0.00010,-0.00013,33.0,34.3,21,0,100,26.2,13.34,0.00,0.00
15min,AgWx,blo,425,12JAN2019:04:00:00,22.2,12.87,20.7,20.5,20.4,20.6,19.9,95,95,94,0.360,19.1,19.4,18.5,1.096,1.5,239,22,2.7,-0.00013,-0.00017,33.0,34.3,21,0,100,26.2,13.34,0.00,0.00
15min,AgWx,blo,425,12JAN2019:04:15:00,22.2,12.85,20.8,20.7,20.5,20.8,20.3,94,95,94,0.360,19.1,19.3,18.7,1.907,1.9,286,24,3.5,-0.00012,-0.00015,33.0,34.3,21,0,100,26.2,13.34,0.00,0.00
15min,AgWx,blo,425,12JAN2019:04:30:00,22.1,12.84,20.5,20.2,20.3,20.7,20.2,94,94,94,0.354,18.9,19.2,18.7,4.034,2.9,281,15,4.4,-0.00010,-0.00011,33.0,34.3,21,0,100,25.7,13.34,0.00,0.00
15min,AgWx,blo,425,12JAN2019:04:45:00,22.1,12.84,20.9,20.7,20.5,20.7,20.2,95,95,94,0.363,19.2,19.5,18.9,3.836,3.3,288,9.9,4.6,-0.00009,-0.00010,33.0,34.3,21,0,100,25.6,13.34,0.00,0.00
15min,AgWx,blo,425,12JAN2019:05:00:00,22.1,12.83,20.7,20.5,20.7,20.8,20.5,95,95,95,0.360,19.5,19.7,19.3,3.508,3.5,280,19,5.6,-0.00009,-0.00010,33.0,34.3,21,0,100,25.7,13.34,0.00,0.00
15min,AgWx,blo,425,12JAN2019:05:15:00,22.1,12.82,20.9,20.5,20.5,20.6,20.2,95,95,95,0.361,19.2,19.4,18.9,2.083,3.0,275,13,4.8,-0.00009,-0.00011,33.0,34.3,21,0,100,25.7,13.34,0.00,0.00
15min,AgWx,blo,425,12JAN2019:05:30:00,22.2,12.82,20.8,20.5,20.6,20.8,20.5,95,95,95,0.361,19.4,19.7,19.2,0.921,1.8,246,28,3.6,-0.00012,-0.00016,33.0,34.3,21,0,100,26.3,13.34,0.00,0.00
15min,AgWx,blo,425,12JAN2019:05:45:00,22.2,12.82,20.5,20.4,20.5,20.6,20.3,95,95,95,0.358,19.2,19.4,19.1,2.061,0.9,257,29,2.5,-0.00015,-0.00021,33.0,34.3,21,0,100,26.9,13.34,0.00,0.00
15min,AgWx,blo,425,12JAN2019:06:00:00,22.1,12.81,19.9,19.7,20.0,20.5,19.6,95,95,94,0.346,18.7,19.3,18.1,0.921,1.5,273,23,2.9,-0.00013,-0.00017,33.0,34.3,21,0,100,26.2,13.34,0.00,0.00
15min,AgWx,blo,425,12JAN2019:06:15:00,22.0,12.8,19.5,19.5,19.8,20.1,19.5,95,95,94,0.342,18.5,19.0,18.1,1.096,1.4,300,26,3.3,-0.00013,-0.00017,33.0,34.3,21,0,100,25.9,13.34,0.00,0.00
15min,AgWx,blo,425,12JAN2019:06:30:00,21.7,12.8,19.1,18.9,19.2,19.5,18.9,93,94,93,0.330,17.6,18.1,17.2,1.535,0.7,321,80,2.2,-0.00015,-0.00022,33.0,34.3,21,0,100,25.7,13.34,0.00,0.00
15min,AgWx,blo,425,12JAN2019:06:45:00,21.5,12.8,19.2,19.0,19.0,19.2,18.9,94,95,93,0.337,17.6,17.9,17.3,1.315,1.0,202,30,2.6,-0.00014,-0.00019,33.0,34.3,21,0,100,25.5,13.34,0.00,0.00
15min,AgWx,blo,425,12JAN2019:07:00:00,21.3,12.78,19.4,19.1,18.9,19.2,18.7,95,95,94,0.340,17.6,18.1,17.4,0.811,0.8,293,29,2.6,-0.00015,-0.00021,33.0,34.3,21,0,100,25.5,13.34,0.00,0.00
15min,AgWx,blo,425,12JAN2019:07:15:00,21.2,12.78,19.2,19.0,18.9,19.1,18.8,95,95,95,0.338,17.8,17.9,17.6,0.767,1.7,291,21,3.4,-0.00012,-0.00015,33.0,34.3,21,0,100,24.9,13.34,0.00,0.00
15min,AgWx,blo,425,12JAN2019:07:30:00,21.1,12.78,19.4,19.1,19.0,19.2,18.9,95,95,95,0.339,17.8,18.0,17.6,0,0.8,341,19,2.7,-0.00014,-0.00020,33.0,34.3,21,0,100,25.1,13.34,0.00,0.00
15min,AgWx,blo,425,12JAN2019:07:45:00,21.0,12.78,19.3,19.0,19.1,19.2,19.0,95,95,95,0.339,17.9,18.0,17.8,1.469,1.0,84,34,2.9,-0.00014,-0.00019,33.0,34.3,21,1,100,25.5,13.34,0.00,0.00
15min,AgWx,blo,425,12JAN2019:08:00:00,21.0,12.78,19.1,18.9,19.0,19.1,18.9,95,96,95,0.337,17.9,18.0,17.8,1.425,1.1,100,20,2.0,-0.00013,-0.00018,33.0,34.3,21,4,100,25.4,13.34,0.00,0.00